Regional Weather Roundup
Issued by NWS

Home | Current Version | Previous Version | Text Only | Print | Product List | Glossary Off
Versions: 1 2 3 4 5 6 7 8 9 10 11 12 13 14 15 16 17 18 19 20 21 22 23 24 25 26 27 28 29 30 31 32 33 34 35 36 37 38 39 40 41 42 43 44 45 46 47 48 49 50

000
ASUS43 KLMK 290910
RWRKY
KENTUCKY REGIONAL WEATHER ROUNDUP
NATIONAL WEATHER SERVICE LOUISVILLE KY
500 AM EDT THU SEP 29 2016

NOTE "FAIR" INDICATES FEW OR NO CLOUDS BELOW 12,000 FEET
WITH NO SIGNIFICANT WEATHER AND/OR OBSTRUCTIONS TO VISIBILITY.

KYZ001>023-026-027-061>063-070>075-291000-
WESTERN AND SOUTH CENTRAL KENTUCKY

CITY           SKY/WX    TMP DP  RH WIND       PRES   REMARKS
PADUCAH        PTCLDY    50  46  86 W6        30.07S
HENDERSON      MOCLDY    48  43  81 SW6       30.02S
OWENSBORO      NOT AVBL
HOPKINSVILLE   NOT AVBL
BOWLING GREEN  CLEAR     51  47  86 SW3       30.03S
GLASGOW        PTCLDY    49  49 100 CALM      30.01S
$$

KYZ024-025-028>034-038-045-046-053-291000-
NORTH CENTRAL KENTUCKY

CITY           SKY/WX    TMP DP  RH WIND       PRES   REMARKS
LOUISVILLE/SDF MOCLDY    55  49  80 W6        29.99S
LOUISVILLE/LOU CLOUDY    54  49  83 CALM      30.00R
FORT KNOX      NOT AVBL
$$

KYZ035>037-039>044-047>052-055>060-089>105-291000-
NORTHEAST KENTUCKY

CITY           SKY/WX    TMP DP  RH WIND       PRES   REMARKS
LEXINGTON      CLOUDY    50  48  93 CALM      30.00R
COVINGTON      CLOUDY    52  52 100 CALM      29.99R FOG
FRANKFORT      CLEAR     50  47  89 SE3       29.98R
$$

KYZ054-064>069-076>088-106>120-291000-
SOUTHEAST KENTUCKY

CITY           SKY/WX    TMP DP  RH WIND       PRES   REMARKS
JACKSON        CLOUDY    56  55  97 CALM      29.97S
LONDON         CLEAR     52  49  89 W3        29.99S
SOMERSET       CLOUDY    52  52 100 CALM      30.02S
MIDDLESBORO    RAIN      58  58  99 CALM      29.98S
MONTICELLO     CLOUDY    55  54  96 CALM      30.02S
$$





USA.gov is the U.S. government's official web portal to all federal, state and local government web resources and services.